Location: Armidale
(30.5016°S, 151.6662°E)
Time: 11:30:09
(UTC+10:00)

Oscar 11 - Visible Passes

Search period start: 06 August 2021 00:00
Search period end: 16 August 2021 00:00
Orbit: 614 x 624 km, 97.6° (Epoch: 05 August)

Date Brightness Start Highest point End Pass type
(mag) Time Alt. Az. Time Alt. Az. Time Alt. Az.
06 Aug 9.9 03:52:38 10° ENE 03:55:11 15° ESE 03:57:34 11° SE visible
06 Aug 7.7 05:27:02 10° NNW 05:30:57 34° W 05:34:44 11° SSW visible
07 Aug 9.2 04:08:29 10° NE 04:11:57 24° ESE 04:14:55 13° SSE visible
07 Aug 8.3 05:44:39 10° NW 05:47:57 21° W 05:51:16 10° SW visible
08 Aug 8.4 04:24:45 10° NE 04:28:45 38° ESE 04:32:18 13° S visible
08 Aug 8.8 06:02:56 10° WNW 06:04:58 13° W 06:07:00 10° WSW visible
08 Aug 8.3 17:53:03 10° S 17:57:12 44° WSW 18:01:18 10° NNW visible
09 Aug 7.4 04:41:20 10° NNE 04:45:36 63° ESE 04:49:43 11° S visible
09 Aug 9.2 18:10:18 10° SSW 18:14:00 28° WSW 18:17:42 10° NW visible
10 Aug 6.9 04:58:10 10° N 05:02:29 78° WNW 05:06:51 10° SSW visible
10 Aug 9.9 18:27:52 10° SSW 18:30:48 18° WSW 18:33:41 10° WNW visible
11 Aug 10.2 03:42:22 10° E 03:43:46 11° ESE 03:45:11 10° SE visible
11 Aug 7.3 05:15:15 10° N 05:19:24 46° W 05:23:36 10° SSW visible
11 Aug 10.3 18:46:14 10° SW 18:47:31 11° WSW 18:48:48 10° W visible
12 Aug 9.7 03:57:34 10° ENE 04:00:31 18° ESE 04:03:29 10° SSE visible
12 Aug 7.9 05:32:38 10° NNW 05:36:22 28° W 05:40:08 10° SW visible
13 Aug 9.0 04:13:35 10° NE 04:17:17 28° ESE 04:21:01 10° SSE visible
13 Aug 8.5 05:50:26 10° NW 05:53:21 18° W 05:56:19 10° SW visible
14 Aug 8.1 04:30:00 10° NNE 04:34:06 45° ESE 04:38:16 10° S visible
14 Aug 8.7 17:58:31 10° S 18:02:33 37° WSW 18:06:32 10° NW visible
15 Aug 7.1 04:46:40 10° NNE 04:50:58 76° ESE 04:55:19 10° S visible
15 Aug 9.6 18:15:52 10° SSW 18:19:21 24° WSW 18:22:48 10° NW visible
